Location: Marsån
(66.4167°N, 22.2833°E)
Time: 12:01:31
(UTC+00:00)

Cosmos 1898 Rocket - Pass Details

Date: 24 February 2024
Orbit: 751 x 782 km, 74.0° (Epoch: 15 April)

Event Time Altitude Azimuth Distance (km) Brightness Sun altitude
Exits shadow 23:37:26 48° 10° (N) 1,023 4.4 -32.2°
Drops below altitude 10° 23:41:37 10° 47° (NE) 2,346 6.7 -32.1°
Sets 23:44:04 0° 51° (NE) 3,279 7.5 -32.0°
